Time,TemperatureF,DewpointF,PressureIn,WindDirection,WindDirectionDegrees,WindSpeedMPH,WindSpeedGustMPH,Humidity,HourlyPrecipIn,Conditions,Clouds,dailyrainin,SoftwareType,DateUTC
2013-04-14 00:00:00,42.7,38.4,29.60,North,0,0.0,0.0,85,0.01,,,0.25,WUHU216HW,2013-04-14 04:00:00,
2013-04-14 00:01:00,42.7,38.4,29.60,North,0,0.0,0.0,85,0.01,,,0.00,WUHU216HW,2013-04-14 04:01:00,
2013-04-14 00:06:00,42.5,38.3,29.60,North,0,0.0,0.0,85,0.01,,,0.00,WUHU216HW,2013-04-14 04:06:00,
2013-04-14 00:11:00,42.3,38.1,29.60,North,0,0.0,0.0,85,0.01,,,0.00,WUHU216HW,2013-04-14 04:11:00,
2013-04-14 00:16:00,42.3,38.1,29.60,North,0,0.0,0.0,85,0.01,,,0.00,WUHU216HW,2013-04-14 04:16:00,
2013-04-14 00:21:00,42.1,38.2,29.59,North,0,0.0,0.0,86,0.01,,,0.00,WUHU216HW,2013-04-14 04:21:00,
2013-04-14 00:26:00,42.1,38.5,29.60,ENE,68,0.7,0.7,87,0.01,,,0.00,WUHU216HW,2013-04-14 04:26:00,
2013-04-14 00:31:00,42.1,38.5,29.60,ENE,68,0.0,0.7,87,0.01,,,0.00,WUHU216HW,2013-04-14 04:31:00,
2013-04-14 00:36:00,41.9,38.4,29.59,ENE,68,0.0,0.7,87,0.01,,,0.00,WUHU216HW,2013-04-14 04:36:00,
2013-04-14 00:42:00,41.8,38.2,29.60,ENE,68,0.0,0.0,87,0.01,,,0.00,WUHU216HW,2013-04-14 04:42:00,
2013-04-14 00:47:00,41.8,38.2,29.60,ENE,68,0.0,0.0,87,0.00,,,0.00,WUHU216HW,2013-04-14 04:47:00,
2013-04-14 00:52:00,41.4,37.8,29.60,ENE,68,0.0,0.0,87,0.00,,,0.00,WUHU216HW,2013-04-14 04:52:00,
2013-04-14 00:57:00,41.4,37.8,29.59,ENE,68,0.0,0.0,87,0.00,,,0.00,WUHU216HW,2013-04-14 04:57:00,
2013-04-14 01:02:00,41.2,37.6,29.59,ENE,68,0.0,0.0,87,0.00,,,0.00,WUHU216HW,2013-04-14 05:02:00,
2013-04-14 01:07:00,41.2,37.6,29.59,ENE,68,0.2,0.2,87,0.00,,,0.00,WUHU216HW,2013-04-14 05:07:00,
2013-04-14 01:12:00,41.0,37.5,29.59,ENE,68,0.0,0.2,87,0.00,,,0.00,WUHU216HW,2013-04-14 05:12:00,
2013-04-14 01:17:00,41.0,37.5,29.59,ENE,68,0.0,0.2,87,0.00,,,0.00,WUHU216HW,2013-04-14 05:17:00,
2013-04-14 01:23:00,40.9,37.3,29.59,ENE,68,0.0,0.0,87,0.00,,,0.00,WUHU216HW,2013-04-14 05:23:00,
2013-04-14 01:28:00,40.7,37.1,29.59,ENE,68,0.0,0.0,87,0.00,,,0.00,WUHU216HW,2013-04-14 05:28:00,
2013-04-14 01:33:00,40.7,37.1,29.59,ENE,68,0.0,0.4,87,0.00,,,0.00,WUHU216HW,2013-04-14 05:33:00,
2013-04-14 01:38:00,40.7,37.4,29.60,ENE,68,0.0,0.4,88,0.00,,,0.00,WUHU216HW,2013-04-14 05:38:00,
2013-04-14 01:43:00,40.7,37.4,29.60,NE,45,0.0,0.0,88,0.00,,,0.00,WUHU216HW,2013-04-14 05:43:00,
2013-04-14 01:48:00,40.5,37.2,29.59,NE,45,0.0,0.0,88,0.00,,,0.00,WUHU216HW,2013-04-14 05:48:00,
2013-04-14 01:53:00,40.5,37.2,29.59,NE,45,0.0,0.0,88,0.00,,,0.00,WUHU216HW,2013-04-14 05:53:00,
2013-04-14 01:58:00,40.3,37.0,29.59,NE,45,0.0,0.0,88,0.00,,,0.00,WUHU216HW,2013-04-14 05:58:00,
2013-04-14 02:03:00,40.1,36.8,29.59,NE,45,0.0,0.0,88,0.00,,,0.00,WUHU216HW,2013-04-14 06:03:00,
2013-04-14 02:08:00,40.1,36.8,29.59,NE,45,0.0,0.0,88,0.00,,,0.00,WUHU216HW,2013-04-14 06:08:00,
2013-04-14 02:13:00,40.0,36.6,29.59,NE,45,0.0,0.0,88,0.00,,,0.00,WUHU216HW,2013-04-14 06:13:00,
2013-04-14 02:18:00,40.0,37.0,29.59,NE,45,0.0,0.4,89,0.00,,,0.00,WUHU216HW,2013-04-14 06:18:00,
2013-04-14 02:23:00,40.0,37.0,29.59,NE,45,0.0,0.4,89,0.00,,,0.00,WUHU216HW,2013-04-14 06:23:00,
2013-04-14 02:28:00,39.8,36.8,29.58,NE,45,0.0,0.0,89,0.00,,,0.00,WUHU216HW,2013-04-14 06:28:00,
2013-04-14 02:33:00,39.6,36.6,29.59,NE,45,0.4,0.4,89,0.00,,,0.00,WUHU216HW,2013-04-14 06:33:00,
2013-04-14 02:38:00,39.2,36.3,29.59,NE,45,0.4,0.4,89,0.00,,,0.00,WUHU216HW,2013-04-14 06:38:00,
2013-04-14 02:43:00,39.1,36.1,29.59,NE,45,0.4,0.4,89,0.00,,,0.00,WUHU216HW,2013-04-14 06:43:00,
2013-04-14 02:49:00,38.9,35.9,29.59,NE,45,0.0,0.4,89,0.00,,,0.00,WUHU216HW,2013-04-14 06:49:00,
2013-04-14 02:54:00,38.7,35.7,29.59,NE,45,0.0,0.2,89,0.00,,,0.00,WUHU216HW,2013-04-14 06:54:00,
2013-04-14 02:59:00,38.5,35.6,29.58,NE,45,0.0,0.0,89,0.00,,,0.00,WUHU216HW,2013-04-14 06:59:00,
2013-04-14 03:04:00,38.5,35.6,29.58,NE,45,0.0,0.4,89,0.00,,,0.00,WUHU216HW,2013-04-14 07:04:00,
2013-04-14 03:09:00,38.3,35.6,29.59,NE,45,0.0,0.4,90,0.00,,,0.00,WUHU216HW,2013-04-14 07:09:00,
2013-04-14 03:14:00,38.2,35.5,29.59,NE,45,0.0,0.0,90,0.00,,,0.00,WUHU216HW,2013-04-14 07:14:00,
2013-04-14 03:19:00,38.0,35.3,29.59,NE,45,0.0,0.0,90,0.00,,,0.00,WUHU216HW,2013-04-14 07:19:00,
2013-04-14 03:24:00,38.0,35.3,29.59,WNW,293,0.0,0.0,90,0.00,,,0.00,WUHU216HW,2013-04-14 07:24:00,
2013-04-14 03:29:00,38.0,35.3,29.59,WNW,293,0.0,0.0,90,0.00,,,0.00,WUHU216HW,2013-04-14 07:29:00,
2013-04-14 03:34:00,37.8,35.1,29.59,WNW,293,0.0,0.0,90,0.00,,,0.00,WUHU216HW,2013-04-14 07:34:00,
2013-04-14 03:40:00,38.0,35.3,29.59,NW,315,0.0,0.4,90,0.01,,,0.01,WUHU216HW,2013-04-14 07:40:00,
2013-04-14 03:45:00,38.0,35.3,29.59,NW,315,0.0,0.4,90,0.01,,,0.01,WUHU216HW,2013-04-14 07:45:00,
2013-04-14 03:50:00,37.8,35.1,29.59,NW,315,0.4,0.4,90,0.01,,,0.01,WUHU216HW,2013-04-14 07:50:00,
2013-04-14 03:55:00,37.8,35.1,29.59,NW,315,0.7,0.7,90,0.01,,,0.01,WUHU216HW,2013-04-14 07:55:00,
2013-04-14 04:00:00,37.8,35.4,29.58,NW,315,0.3,0.7,91,0.01,,,0.01,WUHU216HW,2013-04-14 08:00:00,
2013-04-14 04:05:00,37.8,35.4,29.59,NW,315,0.0,0.4,91,0.01,,,0.01,WUHU216HW,2013-04-14 08:05:00,
2013-04-14 04:10:00,37.8,35.4,29.59,NW,315,0.0,0.0,91,0.01,,,0.01,WUHU216HW,2013-04-14 08:10:00,
2013-04-14 04:15:00,37.8,35.4,29.59,NW,315,0.0,0.0,91,0.01,,,0.01,WUHU216HW,2013-04-14 08:15:00,
2013-04-14 04:20:00,37.8,35.1,29.59,North,0,0.9,0.9,90,0.01,,,0.01,WUHU216HW,2013-04-14 08:20:00,
2013-04-14 04:25:00,37.8,35.1,29.59,North,0,0.2,0.9,90,0.01,,,0.01,WUHU216HW,2013-04-14 08:25:00,
2013-04-14 04:30:00,37.8,35.1,29.59,North,0,0.0,0.9,90,0.01,,,0.01,WUHU216HW,2013-04-14 08:30:00,
2013-04-14 04:35:00,37.8,35.1,29.60,North,0,0.0,0.0,90,0.01,,,0.01,WUHU216HW,2013-04-14 08:35:00,
2013-04-14 04:40:00,37.8,35.1,29.61,WNW,301,0.2,0.2,90,0.00,,,0.01,WUHU216HW,2013-04-14 08:40:00,
2013-04-14 04:45:00,37.8,35.1,29.61,North,0,0.2,0.4,90,0.00,,,0.01,WUHU216HW,2013-04-14 08:45:00,
2013-04-14 04:51:00,37.8,35.1,29.61,North,0,0.0,0.7,90,0.00,,,0.01,WUHU216HW,2013-04-14 08:51:00,
2013-04-14 04:56:00,37.8,35.1,29.61,North,0,0.0,0.7,90,0.00,,,0.01,WUHU216HW,2013-04-14 08:56:00,
2013-04-14 05:01:00,37.8,35.1,29.61,North,0,0.4,0.4,90,0.00,,,0.01,WUHU216HW,2013-04-14 09:01:00,
2013-04-14 05:06:00,37.8,35.4,29.60,NNE,23,1.8,1.8,91,0.00,,,0.01,WUHU216HW,2013-04-14 09:06:00,
2013-04-14 05:11:00,37.8,35.6,29.60,NNE,23,0.9,1.8,92,0.00,,,0.01,WUHU216HW,2013-04-14 09:11:00,
2013-04-14 05:17:00,38.0,35.8,29.60,NNE,23,0.7,1.1,92,0.00,,,0.01,WUHU216HW,2013-04-14 09:17:00,
2013-04-14 05:22:00,38.0,35.8,29.61,NNE,23,0.0,0.7,92,0.00,,,0.01,WUHU216HW,2013-04-14 09:22:00,
2013-04-14 05:27:00,38.2,36.0,29.60,NNE,23,0.0,0.0,92,0.00,,,0.01,WUHU216HW,2013-04-14 09:27:00,
2013-04-14 05:32:00,38.0,35.8,29.60,NNE,23,0.3,0.4,92,0.00,,,0.01,WUHU216HW,2013-04-14 09:32:00,
2013-04-14 05:37:00,38.2,36.0,29.60,NNE,23,0.0,0.4,92,0.00,,,0.01,WUHU216HW,2013-04-14 09:37:00,
2013-04-14 05:42:00,38.2,36.0,29.60,NNE,23,0.3,0.4,92,0.00,,,0.01,WUHU216HW,2013-04-14 09:42:00,
2013-04-14 05:47:00,38.2,36.0,29.60,NNE,23,0.4,0.4,92,0.00,,,0.01,WUHU216HW,2013-04-14 09:47:00,
2013-04-14 05:52:00,38.2,36.0,29.60,NNE,23,0.7,0.7,92,0.00,,,0.01,WUHU216HW,2013-04-14 09:52:00,
2013-04-14 05:57:00,38.0,35.8,29.60,NNE,23,0.4,0.7,92,0.00,,,0.01,WUHU216HW,2013-04-14 09:57:00,
2013-04-14 06:03:00,38.0,35.8,29.61,NNE,23,0.0,0.7,92,0.00,,,0.01,WUHU216HW,2013-04-14 10:03:00,
2013-04-14 06:08:00,38.0,35.8,29.61,NNE,23,0.0,0.0,92,0.00,,,0.01,WUHU216HW,2013-04-14 10:08:00,
2013-04-14 06:13:00,38.2,36.0,29.61,NNE,23,0.0,0.4,92,0.00,,,0.01,WUHU216HW,2013-04-14 10:13:00,
2013-04-14 06:18:00,38.2,36.0,29.61,NNE,23,0.4,0.4,92,0.00,,,0.01,WUHU216HW,2013-04-14 10:18:00,
2013-04-14 06:23:00,38.2,36.0,29.61,NNE,23,0.7,0.7,92,0.00,,,0.01,WUHU216HW,2013-04-14 10:23:00,
2013-04-14 06:28:00,38.2,36.0,29.61,NNE,23,0.9,1.1,92,0.00,,,0.01,WUHU216HW,2013-04-14 10:28:00,
2013-04-14 06:33:00,38.2,36.0,29.61,NE,45,0.4,1.1,92,0.00,,,0.01,WUHU216HW,2013-04-14 10:33:00,
2013-04-14 06:38:00,38.2,36.0,29.61,NE,45,0.4,1.1,92,0.00,,,0.01,WUHU216HW,2013-04-14 10:38:00,
2013-04-14 06:43:00,38.2,36.0,29.61,NE,45,0.0,0.7,92,0.00,,,0.01,WUHU216HW,2013-04-14 10:43:00,
2013-04-14 06:48:00,38.2,36.0,29.61,NE,45,0.2,0.4,92,0.00,,,0.01,WUHU216HW,2013-04-14 10:48:00,
2013-04-14 06:53:00,38.3,36.2,29.61,NE,45,0.4,0.4,92,0.00,,,0.01,WUHU216HW,2013-04-14 10:53:00,
2013-04-14 06:58:00,38.3,36.2,29.61,NE,45,0.2,0.4,92,0.00,,,0.01,WUHU216HW,2013-04-14 10:58:00,
2013-04-14 07:04:00,38.5,36.4,29.62,NE,45,0.0,0.4,92,0.00,,,0.01,WUHU216HW,2013-04-14 11:04:00,
2013-04-14 07:09:00,38.5,36.4,29.61,NE,45,0.0,0.0,92,0.00,,,0.01,WUHU216HW,2013-04-14 11:09:00,
2013-04-14 07:14:00,38.7,36.5,29.62,NE,45,0.0,0.0,92,0.00,,,0.01,WUHU216HW,2013-04-14 11:14:00,
2013-04-14 07:19:00,38.9,36.7,29.62,NE,45,0.0,0.0,92,0.00,,,0.01,WUHU216HW,2013-04-14 11:19:00,
2013-04-14 07:24:00,39.1,37.2,29.63,NE,45,0.4,0.7,93,0.00,,,0.01,WUHU216HW,2013-04-14 11:24:00,
2013-04-14 07:29:00,39.2,37.4,29.63,NE,45,0.0,0.7,93,0.00,,,0.01,WUHU216HW,2013-04-14 11:29:00,
2013-04-14 07:34:00,39.4,37.5,29.63,NE,45,0.0,0.4,93,0.00,,,0.01,WUHU216HW,2013-04-14 11:34:00,
2013-04-14 07:39:00,39.8,37.9,29.63,NE,45,0.0,0.0,93,0.00,,,0.01,WUHU216HW,2013-04-14 11:39:00,
2013-04-14 07:44:00,39.8,37.9,29.63,North,0,0.0,0.0,93,0.00,,,0.01,WUHU216HW,2013-04-14 11:44:00,
2013-04-14 07:49:00,40.1,38.5,29.63,NE,45,0.0,0.0,94,0.00,,,0.01,WUHU216HW,2013-04-14 11:49:00,
2013-04-14 07:54:00,40.1,38.3,29.62,NE,45,0.9,0.9,93,0.00,,,0.01,WUHU216HW,2013-04-14 11:54:00,
2013-04-14 07:59:00,40.1,38.3,29.63,NE,45,0.0,0.9,93,0.00,,,0.01,WUHU216HW,2013-04-14 11:59:00,
2013-04-14 08:04:00,40.1,38.3,29.63,NE,45,0.0,0.9,93,0.00,,,0.01,WUHU216HW,2013-04-14 12:04:00,
2013-04-14 08:09:00,40.3,38.4,29.63,North,0,0.0,0.0,93,0.00,,,0.01,WUHU216HW,2013-04-14 12:09:00,
2013-04-14 08:15:00,40.5,38.6,29.63,North,0,0.0,0.0,93,0.00,,,0.01,WUHU216HW,2013-04-14 12:15:00,
2013-04-14 08:20:00,41.0,39.2,29.63,North,0,0.0,0.0,93,0.00,,,0.01,WUHU216HW,2013-04-14 12:20:00,
2013-04-14 08:25:00,41.2,39.3,29.63,North,0,0.0,0.0,93,0.00,,,0.01,WUHU216HW,2013-04-14 12:25:00,
2013-04-14 08:30:00,41.2,39.3,29.63,North,0,0.0,0.0,93,0.00,,,0.01,WUHU216HW,2013-04-14 12:30:00,
2013-04-14 08:35:00,41.4,39.0,29.63,North,0,0.0,0.0,91,0.00,,,0.01,WUHU216HW,2013-04-14 12:35:00,
2013-04-14 08:40:00,41.8,39.1,29.63,North,0,0.0,0.0,90,0.00,,,0.01,WUHU216HW,2013-04-14 12:40:00,
2013-04-14 08:45:00,42.5,38.9,29.63,North,0,0.0,0.0,87,0.00,,,0.01,WUHU216HW,2013-04-14 12:45:00,
2013-04-14 08:50:00,42.8,38.9,29.63,North,0,0.0,0.0,86,0.00,,,0.01,WUHU216HW,2013-04-14 12:50:00,
2013-04-14 08:55:00,43.0,38.8,29.63,North,0,0.0,0.0,85,0.00,,,0.01,WUHU216HW,2013-04-14 12:55:00,
2013-04-14 09:00:00,43.0,37.9,29.63,North,0,0.0,0.0,82,0.00,,,0.01,WUHU216HW,2013-04-14 13:00:00,
2013-04-14 09:05:00,43.4,38.5,29.63,North,0,0.0,0.0,83,0.00,,,0.01,WUHU216HW,2013-04-14 13:05:00,
2013-04-14 09:10:00,44.1,38.6,29.63,North,0,0.0,0.0,81,0.00,,,0.01,WUHU216HW,2013-04-14 13:10:00,
2013-04-14 09:15:00,45.2,39.7,29.63,North,0,0.0,0.0,81,0.00,,,0.01,WUHU216HW,2013-04-14 13:15:00,
2013-04-14 09:20:00,45.9,39.2,29.63,North,0,0.0,0.0,77,0.00,,,0.01,WUHU216HW,2013-04-14 13:20:00,
2013-04-14 09:25:00,46.1,39.6,29.63,North,0,0.0,0.0,78,0.00,,,0.01,WUHU216HW,2013-04-14 13:25:00,
2013-04-14 09:30:00,47.0,39.8,29.63,SW,225,2.2,2.7,76,0.00,,,0.01,WUHU216HW,2013-04-14 13:30:00,
2013-04-14 09:36:00,47.2,39.6,29.63,SW,225,4.3,4.3,75,0.00,,,0.01,WUHU216HW,2013-04-14 13:36:00,
2013-04-14 09:41:00,46.4,38.3,29.63,SSW,203,2.5,4.5,73,0.00,,,0.01,WUHU216HW,2013-04-14 13:41:00,
2013-04-14 09:46:00,46.3,38.1,29.63,WNW,293,2.0,4.5,73,0.00,,,0.01,WUHU216HW,2013-04-14 13:46:00,
2013-04-14 09:51:00,46.3,37.5,29.63,West,273,1.3,2.7,71,0.00,,,0.01,WUHU216HW,2013-04-14 13:51:00,
2013-04-14 09:56:00,46.4,36.9,29.63,West,270,2.9,3.8,69,0.00,,,0.01,WUHU216HW,2013-04-14 13:56:00,
2013-04-14 10:01:00,47.3,38.4,29.63,WSW,248,2.9,5.4,71,0.00,,,0.01,WUHU216HW,2013-04-14 14:01:00,
2013-04-14 10:06:00,48.2,38.5,29.63,SW,221,2.6,5.4,69,0.00,,,0.01,WUHU216HW,2013-04-14 14:06:00,
2013-04-14 10:11:00,49.0,37.7,29.63,WSW,248,2.5,4.3,65,0.00,,,0.01,WUHU216HW,2013-04-14 14:11:00,
2013-04-14 10:16:00,49.7,38.0,29.63,SW,229,2.4,4.3,64,0.00,,,0.01,WUHU216HW,2013-04-14 14:16:00,
2013-04-14 10:21:00,49.7,38.3,29.63,SW,235,2.0,4.9,65,0.00,,,0.01,WUHU216HW,2013-04-14 14:21:00,
2013-04-14 10:27:00,49.9,37.7,29.64,South,191,6.0,9.4,63,0.00,,,0.01,WUHU216HW,2013-04-14 14:27:00,
2013-04-14 10:32:00,49.7,38.0,29.63,WSW,248,2.0,9.4,64,0.00,,,0.01,WUHU216HW,2013-04-14 14:32:00,
2013-04-14 10:37:00,49.5,37.5,29.64,ENE,68,2.9,4.3,63,0.00,,,0.01,WUHU216HW,2013-04-14 14:37:00,
2013-04-14 10:42:00,49.5,36.6,29.64,WNW,292,1.8,4.3,61,0.00,,,0.01,WUHU216HW,2013-04-14 14:42:00,
2013-04-14 10:47:00,49.7,36.8,29.64,NNE,18,2.8,8.5,61,0.00,,,0.01,WUHU216HW,2013-04-14 14:47:00,
2013-04-14 10:52:00,49.3,36.5,29.64,North,0,1.3,8.5,61,0.00,,,0.01,WUHU216HW,2013-04-14 14:52:00,
2013-04-14 10:57:00,49.1,36.3,29.64,WSW,248,1.1,3.6,61,0.00,,,0.01,WUHU216HW,2013-04-14 14:57:00,
2013-04-14 11:02:00,49.7,35.5,29.64,NNW,348,1.3,2.9,58,0.00,,,0.01,WUHU216HW,2013-04-14 15:02:00,
2013-04-14 11:07:00,50.8,36.5,29.64,WSW,248,4.5,4.5,58,0.00,,,0.01,WUHU216HW,2013-04-14 15:07:00,
2013-04-14 11:12:00,50.9,36.2,29.65,West,261,2.4,5.4,57,0.00,,,0.01,WUHU216HW,2013-04-14 15:12:00,
2013-04-14 11:17:00,50.4,35.7,29.64,SW,225,2.0,5.4,57,0.00,,,0.01,WUHU216HW,2013-04-14 15:17:00,
2013-04-14 11:22:00,49.9,35.6,29.65,SW,230,2.0,3.6,58,0.00,,,0.01,WUHU216HW,2013-04-14 15:22:00,
2013-04-14 11:27:00,49.9,35.6,29.64,SW,236,2.4,4.3,58,0.00,,,0.01,WUHU216HW,2013-04-14 15:27:00,
2013-04-14 11:32:00,50.6,37.2,29.64,SSW,205,2.2,4.7,60,0.00,,,0.01,WUHU216HW,2013-04-14 15:32:00,
2013-04-14 11:37:00,51.5,35.7,29.64,North,0,2.9,8.3,55,0.00,,,0.01,WUHU216HW,2013-04-14 15:37:00,
2013-04-14 11:42:00,51.8,36.1,29.64,West,268,1.4,8.3,55,0.00,,,0.01,WUHU216HW,2013-04-14 15:42:00,
2013-04-14 11:47:00,51.7,35.5,29.64,WNW,293,1.6,5.6,54,0.00,,,0.01,WUHU216HW,2013-04-14 15:47:00,
2013-04-14 11:52:00,51.3,35.7,29.64,NW,325,0.8,2.2,55,0.00,,,0.01,WUHU216HW,2013-04-14 15:52:00,
2013-04-14 11:58:00,51.1,35.5,29.64,NNE,13,1.4,5.6,55,0.00,,,0.01,WUHU216HW,2013-04-14 15:58:00,
2013-04-14 12:03:00,50.8,34.2,29.64,North,1,2.2,7.6,53,0.00,,,0.01,WUHU216HW,2013-04-14 16:03:00,
2013-04-14 12:08:00,50.4,34.8,29.64,NE,45,0.7,7.6,55,0.00,,,0.01,WUHU216HW,2013-04-14 16:08:00,
2013-04-14 12:13:00,50.4,35.3,29.64,WSW,248,1.1,2.0,56,0.00,,,0.01,WUHU216HW,2013-04-14 16:13:00,
2013-04-14 12:18:00,50.2,33.8,29.64,NNE,12,3.4,7.2,53,0.00,,,0.01,WUHU216HW,2013-04-14 16:18:00,
2013-04-14 12:23:00,50.2,34.7,29.64,North,353,0.8,7.2,55,0.00,,,0.01,WUHU216HW,2013-04-14 16:23:00,
2013-04-14 12:28:00,50.4,34.8,29.64,SW,222,2.0,3.1,55,0.00,,,0.01,WUHU216HW,2013-04-14 16:28:00,
2013-04-14 12:33:00,50.4,33.9,29.64,SW,225,2.9,4.0,53,0.00,,,0.01,WUHU216HW,2013-04-14 16:33:00,
2013-04-14 12:38:00,50.6,34.0,29.64,NNW,348,1.4,4.7,53,0.00,,,0.01,WUHU216HW,2013-04-14 16:38:00,
2013-04-14 12:43:00,52.2,36.0,29.64,WSW,245,3.3,4.7,54,0.00,,,0.01,WUHU216HW,2013-04-14 16:43:00,
2013-04-14 12:48:00,53.1,35.5,29.64,WSW,251,1.4,4.7,51,0.00,,,0.01,WUHU216HW,2013-04-14 16:48:00,
2013-04-14 12:53:00,53.5,34.7,29.64,NNW,338,3.1,4.7,49,0.00,,,0.01,WUHU216HW,2013-04-14 16:53:00,
2013-04-14 12:58:00,53.3,35.1,29.64,WSW,248,1.6,4.7,50,0.00,,,0.01,WUHU216HW,2013-04-14 16:58:00,
2013-04-14 13:04:00,52.7,34.1,29.64,NNE,24,2.7,4.0,49,0.00,,,0.01,WUHU216HW,2013-04-14 17:04:00,
2013-04-14 13:08:00,52.6,34.9,29.64,SW,225,1.3,4.0,51,0.00,,,0.01,WUHU216HW,2013-04-14 17:08:00,
2013-04-14 13:14:00,52.7,34.7,29.64,WSW,248,1.8,3.8,50,0.00,,,0.01,WUHU216HW,2013-04-14 17:14:00,
2013-04-14 13:19:00,52.0,34.0,29.65,SSW,207,3.1,8.9,50,0.00,,,0.01,WUHU216HW,2013-04-14 17:19:00,
2013-04-14 13:24:00,50.9,34.4,29.65,WNW,287,2.6,8.9,53,0.00,,,0.01,WUHU216HW,2013-04-14 17:24:00,
2013-04-14 13:29:00,50.0,34.9,29.65,SW,235,1.3,3.6,56,0.00,,,0.01,WUHU216HW,2013-04-14 17:29:00,
2013-04-14 13:34:00,49.7,35.5,29.65,WSW,255,2.7,4.9,58,0.00,,,0.01,WUHU216HW,2013-04-14 17:34:00,
2013-04-14 13:39:00,50.0,36.3,29.65,SW,217,1.9,6.9,59,0.00,,,0.01,WUHU216HW,2013-04-14 17:39:00,
2013-04-14 13:44:00,50.6,35.4,29.65,NNW,328,1.3,6.9,56,0.00,,,0.01,WUHU216HW,2013-04-14 17:44:00,
2013-04-14 13:49:00,50.9,35.3,29.65,SW,225,3.4,4.7,55,0.00,,,0.01,WUHU216HW,2013-04-14 17:49:00,
2013-04-14 13:54:00,51.1,35.0,29.65,West,277,0.7,4.7,54,0.00,,,0.01,WUHU216HW,2013-04-14 17:54:00,
2013-04-14 13:59:00,50.9,33.5,29.66,SW,225,2.9,2.9,51,0.00,,,0.01,WUHU216HW,2013-04-14 17:59:00,
2013-04-14 14:04:00,51.3,33.9,29.66,West,271,1.9,3.4,51,0.00,,,0.01,WUHU216HW,2013-04-14 18:04:00,
2013-04-14 14:09:00,51.7,33.1,29.66,West,270,4.9,6.0,49,0.00,,,0.01,WUHU216HW,2013-04-14 18:09:00,
2013-04-14 14:14:00,52.2,34.2,29.66,WNW,282,2.4,6.0,50,0.00,,,0.01,WUHU216HW,2013-04-14 18:14:00,
2013-04-14 14:19:00,53.1,33.8,29.66,SW,225,4.3,4.9,48,0.00,,,0.01,WUHU216HW,2013-04-14 18:19:00,
2013-04-14 14:24:00,53.3,34.6,29.66,SW,225,4.9,5.4,49,0.00,,,0.01,WUHU216HW,2013-04-14 18:24:00,
2013-04-14 14:29:00,54.2,34.8,29.66,West,264,2.8,7.6,48,0.00,,,0.01,WUHU216HW,2013-04-14 18:29:00,
2013-04-14 14:34:00,54.2,33.8,29.66,North,2,2.4,7.6,46,0.00,,,0.01,WUHU216HW,2013-04-14 18:34:00,
2013-04-14 14:40:00,53.3,33.5,29.67,West,270,4.0,5.6,47,0.00,,,0.01,WUHU216HW,2013-04-14 18:40:00,
2013-04-14 14:45:00,52.2,33.0,29.67,North,0,2.9,4.0,48,0.00,,,0.01,WUHU216HW,2013-04-14 18:45:00,
2013-04-14 14:50:00,51.5,32.9,29.67,NE,45,1.8,4.0,49,0.00,,,0.01,WUHU216HW,2013-04-14 18:50:00,
2013-04-14 14:55:00,50.8,31.8,29.67,NNE,23,4.3,4.3,48,0.00,,,0.01,WUHU216HW,2013-04-14 18:55:00,
2013-04-14 15:00:00,50.6,32.7,29.67,SW,225,1.8,4.3,50,0.00,,,0.01,WUHU216HW,2013-04-14 19:00:00,
2013-04-14 15:05:00,50.8,33.3,29.67,SW,236,1.4,2.5,51,0.00,,,0.01,WUHU216HW,2013-04-14 19:05:00,
2013-04-14 15:10:00,50.9,33.5,29.67,SW,236,0.6,2.5,51,0.00,,,0.01,WUHU216HW,2013-04-14 19:10:00,
2013-04-14 15:15:00,51.1,32.7,29.67,WSW,248,5.1,5.1,49,0.00,,,0.01,WUHU216HW,2013-04-14 19:15:00,
2013-04-14 15:20:00,51.1,32.7,29.67,West,263,2.2,5.1,49,0.00,,,0.01,WUHU216HW,2013-04-14 19:20:00,
2013-04-14 15:25:00,50.8,32.3,29.67,SW,225,2.2,5.1,49,0.00,,,0.01,WUHU216HW,2013-04-14 19:25:00,
2013-04-14 15:30:00,50.9,33.0,29.67,WSW,238,1.7,4.0,50,0.00,,,0.01,WUHU216HW,2013-04-14 19:30:00,
2013-04-14 15:35:00,51.5,32.4,29.67,West,264,2.2,5.4,48,0.00,,,0.01,WUHU216HW,2013-04-14 19:35:00,
2013-04-14 15:40:00,52.0,31.8,29.67,SSW,203,1.8,5.4,46,0.00,,,0.01,WUHU216HW,2013-04-14 19:40:00,
2013-04-14 15:45:00,51.5,31.3,29.68,NW,321,1.3,3.8,46,0.00,,,0.01,WUHU216HW,2013-04-14 19:45:00,
2013-04-14 15:50:00,50.9,31.3,29.68,WSW,239,2.6,3.8,47,0.00,,,0.01,WUHU216HW,2013-04-14 19:50:00,
2013-04-14 15:55:00,50.6,31.6,29.68,NW,315,2.0,4.0,48,0.00,,,0.01,WUHU216HW,2013-04-14 19:55:00,
2013-04-14 16:00:00,50.4,32.0,29.68,SW,225,2.2,4.0,49,0.00,,,0.01,WUHU216HW,2013-04-14 20:00:00,
2013-04-14 16:05:00,50.6,32.1,29.68,WSW,248,3.6,4.0,49,0.00,,,0.01,WUHU216HW,2013-04-14 20:05:00,
2013-04-14 16:10:00,50.4,32.0,29.68,WSW,251,2.3,4.0,49,0.00,,,0.01,WUHU216HW,2013-04-14 20:10:00,
2013-04-14 16:15:00,50.4,32.0,29.68,NNW,346,1.2,4.0,49,0.00,,,0.01,WUHU216HW,2013-04-14 20:15:00,
2013-04-14 16:20:00,50.4,31.4,29.68,WSW,248,2.2,4.5,48,0.00,,,0.01,WUHU216HW,2013-04-14 20:20:00,
2013-04-14 16:25:00,50.4,30.9,29.68,NE,45,1.6,4.5,47,0.00,,,0.01,WUHU216HW,2013-04-14 20:25:00,
2013-04-14 16:31:00,50.6,31.1,29.69,WNW,293,3.8,6.9,47,0.00,,,0.01,WUHU216HW,2013-04-14 20:31:00,
2013-04-14 16:36:00,50.6,30.5,29.69,East,90,4.9,6.9,46,0.00,,,0.01,WUHU216HW,2013-04-14 20:36:00,
2013-04-14 16:41:00,50.8,31.8,29.69,WSW,252,1.8,4.9,48,0.00,,,0.01,WUHU216HW,2013-04-14 20:41:00,
2013-04-14 16:45:00,51.1,31.5,29.69,WNW,291,1.1,3.4,47,0.00,,,0.01,WUHU216HW,2013-04-14 20:45:00,
2013-04-14 16:51:00,51.1,31.0,29.69,NE,45,3.1,3.4,46,0.00,,,0.01,WUHU216HW,2013-04-14 20:51:00,
2013-04-14 16:56:00,50.9,31.3,29.69,West,280,1.1,5.6,47,0.00,,,0.01,WUHU216HW,2013-04-14 20:56:00,
2013-04-14 17:01:00,50.9,31.3,29.70,NE,48,1.5,5.6,47,0.00,,,0.01,WUHU216HW,2013-04-14 21:01:00,
2013-04-14 17:06:00,51.1,31.0,29.70,SW,224,2.5,4.3,46,0.00,,,0.01,WUHU216HW,2013-04-14 21:06:00,
2013-04-14 17:11:00,50.9,31.3,29.70,WSW,248,3.4,4.3,47,0.00,,,0.01,WUHU216HW,2013-04-14 21:11:00,
2013-04-14 17:16:00,50.8,31.2,29.71,NNW,337,0.6,3.4,47,0.00,,,0.01,WUHU216HW,2013-04-14 21:16:00,
2013-04-14 17:21:00,50.6,31.1,29.71,NE,39,1.0,3.4,47,0.00,,,0.01,WUHU216HW,2013-04-14 21:21:00,
2013-04-14 17:26:00,50.4,30.9,29.71,SE,139,1.1,2.5,47,0.00,,,0.01,WUHU216HW,2013-04-14 21:26:00,
2013-04-14 17:32:00,50.0,31.2,29.72,SW,225,3.4,3.4,48,0.00,,,0.01,WUHU216HW,2013-04-14 21:32:00,
2013-04-14 17:37:00,49.7,30.8,29.72,WNW,293,1.3,3.4,48,0.00,,,0.01,WUHU216HW,2013-04-14 21:37:00,
2013-04-14 17:42:00,49.5,31.2,29.72,NNE,22,0.9,2.5,49,0.00,,,0.01,WUHU216HW,2013-04-14 21:42:00,
2013-04-14 17:47:00,49.1,30.8,29.73,North,0,0.4,3.1,49,0.00,,,0.01,WUHU216HW,2013-04-14 21:47:00,
2013-04-14 17:52:00,49.0,31.1,29.74,WSW,248,1.3,3.1,50,0.00,,,0.01,WUHU216HW,2013-04-14 21:52:00,
2013-04-14 17:57:00,48.8,31.4,29.74,North,359,0.9,1.8,51,0.00,,,0.01,WUHU216HW,2013-04-14 21:57:00,
2013-04-14 18:02:00,48.6,32.1,29.75,NE,50,0.7,3.4,53,0.00,,,0.01,WUHU216HW,2013-04-14 22:02:00,
2013-04-14 18:07:00,48.2,32.8,29.75,East,90,2.5,3.8,55,0.00,,,0.01,WUHU216HW,2013-04-14 22:07:00,
2013-04-14 18:12:00,47.9,32.9,29.76,SSW,203,1.1,3.8,56,0.00,,,0.01,WUHU216HW,2013-04-14 22:12:00,
2013-04-14 18:17:00,47.5,33.5,29.76,NE,36,0.9,2.5,58,0.00,,,0.01,WUHU216HW,2013-04-14 22:17:00,
2013-04-14 18:22:00,47.3,33.3,29.76,South,180,0.4,3.1,58,0.00,,,0.01,WUHU216HW,2013-04-14 22:22:00,
2013-04-14 18:28:00,47.2,33.6,29.76,NNE,23,4.7,4.7,59,0.00,,,0.01,WUHU216HW,2013-04-14 22:28:00,
2013-04-14 18:33:00,47.2,33.6,29.76,East,90,0.4,4.7,59,0.00,,,0.01,WUHU216HW,2013-04-14 22:33:00,
2013-04-14 18:38:00,46.8,32.8,29.76,North,0,2.2,2.2,58,0.00,,,0.01,WUHU216HW,2013-04-14 22:38:00,
2013-04-14 18:43:00,46.8,32.8,29.76,North,0,3.6,3.6,58,0.00,,,0.01,WUHU216HW,2013-04-14 22:43:00,
2013-04-14 18:48:00,46.8,32.3,29.76,NNE,23,1.8,4.5,57,0.00,,,0.01,WUHU216HW,2013-04-14 22:48:00,
2013-04-14 18:53:00,46.6,32.1,29.76,NNW,330,0.8,4.5,57,0.00,,,0.01,WUHU216HW,2013-04-14 22:53:00,
2013-04-14 18:58:00,46.4,31.5,29.76,East,90,1.3,3.1,56,0.00,,,0.01,WUHU216HW,2013-04-14 22:58:00,
2013-04-14 19:03:00,46.4,31.5,29.76,NNE,23,0.4,2.5,56,0.00,,,0.01,WUHU216HW,2013-04-14 23:03:00,
2013-04-14 19:08:00,46.3,31.8,29.76,NNE,16,0.6,2.5,57,0.00,,,0.01,WUHU216HW,2013-04-14 23:08:00,
2013-04-14 19:13:00,46.1,31.6,29.77,ESE,113,0.9,1.1,57,0.00,,,0.01,WUHU216HW,2013-04-14 23:13:00,
2013-04-14 19:18:00,45.7,31.8,29.77,ENE,58,1.0,1.1,58,0.00,,,0.01,WUHU216HW,2013-04-14 23:18:00,
2013-04-14 19:23:00,45.7,31.8,29.78,East,90,0.0,1.1,58,0.00,,,0.01,WUHU216HW,2013-04-14 23:23:00,
2013-04-14 19:29:00,45.4,32.3,29.78,ENE,68,0.7,0.7,60,0.00,,,0.01,WUHU216HW,2013-04-14 23:29:00,
2013-04-14 19:34:00,45.0,33.1,29.79,NE,36,1.2,4.5,63,0.00,,,0.01,WUHU216HW,2013-04-14 23:34:00,
2013-04-14 19:39:00,44.8,32.9,29.79,North,0,1.1,4.5,63,0.00,,,0.01,WUHU216HW,2013-04-14 23:39:00,
2013-04-14 19:44:00,44.6,32.9,29.79,NNE,23,0.2,2.2,63,0.00,,,0.01,WUHU216HW,2013-04-14 23:44:00,
2013-04-14 19:49:00,44.3,32.9,29.80,ESE,105,0.6,1.8,64,0.00,,,0.01,WUHU216HW,2013-04-14 23:49:00,
2013-04-14 19:54:00,43.9,32.5,29.80,ENE,68,1.1,1.8,64,0.00,,,0.01,WUHU216HW,2013-04-14 23:54:00,
2013-04-14 19:59:00,43.6,32.6,29.80,ENE,68,0.9,1.1,65,0.00,,,0.01,WUHU216HW,2013-04-14 23:59:00,
2013-04-14 20:04:00,43.4,32.8,29.81,NNE,27,1.7,2.2,66,0.00,,,0.01,WUHU216HW,2013-04-15 00:04:00,
2013-04-14 20:09:00,43.2,32.6,29.81,SE,128,0.5,2.2,66,0.00,,,0.01,WUHU216HW,2013-04-15 00:09:00,
2013-04-14 20:14:00,43.0,32.4,29.81,WSW,248,0.4,0.9,66,0.00,,,0.01,WUHU216HW,2013-04-15 00:14:00,
2013-04-14 20:19:00,42.8,32.7,29.82,SSW,203,1.3,1.3,67,0.00,,,0.01,WUHU216HW,2013-04-15 00:19:00,
2013-04-14 20:24:00,42.7,32.5,29.82,North,0,1.1,1.3,67,0.00,,,0.01,WUHU216HW,2013-04-15 00:24:00,
2013-04-14 20:29:00,42.5,32.7,29.83,North,10,0.7,1.3,68,0.00,,,0.01,WUHU216HW,2013-04-15 00:29:00,
2013-04-14 20:34:00,42.3,32.5,29.83,North,0,0.2,1.1,68,0.00,,,0.01,WUHU216HW,2013-04-15 00:34:00,
2013-04-14 20:39:00,42.1,32.3,29.82,East,90,0.4,0.4,68,0.00,,,0.01,WUHU216HW,2013-04-15 00:39:00,
2013-04-14 20:45:00,41.8,31.6,29.83,NW,315,0.0,0.4,67,0.00,,,0.01,WUHU216HW,2013-04-15 00:45:00,
2013-04-14 20:50:00,41.4,31.7,29.83,North,0,0.0,0.0,68,0.00,,,0.01,WUHU216HW,2013-04-15 00:50:00,
2013-04-14 20:55:00,41.4,31.7,29.84,North,0,0.0,0.0,68,0.00,,,0.01,WUHU216HW,2013-04-15 00:55:00,
2013-04-14 21:00:00,41.4,31.7,29.84,North,0,0.0,0.0,68,0.00,,,0.01,WUHU216HW,2013-04-15 01:00:00,
2013-04-14 21:05:00,41.0,31.3,29.85,North,0,0.0,0.0,68,0.00,,,0.01,WUHU216HW,2013-04-15 01:05:00,
2013-04-14 21:10:00,40.7,31.0,29.85,North,0,0.0,0.0,68,0.00,,,0.01,WUHU216HW,2013-04-15 01:10:00,
2013-04-14 21:15:00,40.3,31.0,29.85,North,0,0.0,0.0,69,0.00,,,0.01,WUHU216HW,2013-04-15 01:15:00,
2013-04-14 21:20:00,40.0,30.6,29.85,North,0,0.0,0.0,69,0.00,,,0.01,WUHU216HW,2013-04-15 01:20:00,
2013-04-14 21:25:00,39.6,30.6,29.85,North,0,0.0,0.0,70,0.00,,,0.01,WUHU216HW,2013-04-15 01:25:00,
2013-04-14 21:30:00,39.2,30.6,29.86,North,0,0.0,0.0,71,0.00,,,0.01,WUHU216HW,2013-04-15 01:30:00,
2013-04-14 21:35:00,38.9,30.6,29.86,North,0,0.0,0.0,72,0.00,,,0.01,WUHU216HW,2013-04-15 01:35:00,
2013-04-14 21:41:00,38.5,31.2,29.86,North,0,0.0,0.0,75,0.00,,,0.01,WUHU216HW,2013-04-15 01:41:00,
2013-04-14 21:46:00,38.3,31.4,29.86,North,0,0.0,0.0,76,0.00,,,0.01,WUHU216HW,2013-04-15 01:46:00,
2013-04-14 21:51:00,38.0,31.1,29.86,North,0,0.0,0.0,76,0.00,,,0.01,WUHU216HW,2013-04-15 01:51:00,
2013-04-14 21:56:00,37.8,30.9,29.86,North,0,0.0,0.0,76,0.00,,,0.01,WUHU216HW,2013-04-15 01:56:00,
2013-04-14 22:01:00,37.8,31.2,29.86,North,0,0.0,0.0,77,0.00,,,0.01,WUHU216HW,2013-04-15 02:01:00,
2013-04-14 22:06:00,37.6,31.1,29.86,North,0,0.0,0.0,77,0.00,,,0.01,WUHU216HW,2013-04-15 02:06:00,
2013-04-14 22:11:00,37.4,30.9,29.87,North,0,0.0,0.0,77,0.00,,,0.01,WUHU216HW,2013-04-15 02:11:00,
2013-04-14 22:17:00,37.3,31.1,29.87,North,0,0.0,0.0,78,0.00,,,0.01,WUHU216HW,2013-04-15 02:17:00,
2013-04-14 22:22:00,37.3,31.1,29.87,North,0,0.0,0.0,78,0.00,,,0.01,WUHU216HW,2013-04-15 02:22:00,
2013-04-14 22:27:00,37.1,31.1,29.87,North,0,0.0,0.0,79,0.00,,,0.01,WUHU216HW,2013-04-15 02:27:00,
2013-04-14 22:32:00,37.1,30.9,29.86,North,0,0.0,0.0,78,0.00,,,0.01,WUHU216HW,2013-04-15 02:32:00,
2013-04-14 22:37:00,36.7,31.1,29.86,North,0,0.0,0.0,80,0.00,,,0.01,WUHU216HW,2013-04-15 02:37:00,
2013-04-14 22:42:00,36.4,30.8,29.86,North,0,0.0,0.0,80,0.00,,,0.01,WUHU216HW,2013-04-15 02:42:00,
2013-04-14 22:47:00,36.4,30.4,29.87,North,0,0.0,0.0,79,0.00,,,0.01,WUHU216HW,2013-04-15 02:47:00,
2013-04-14 22:52:00,36.2,30.6,29.87,North,0,0.0,0.0,80,0.00,,,0.01,WUHU216HW,2013-04-15 02:52:00,
2013-04-14 22:57:00,36.0,30.1,29.87,North,0,0.0,0.0,79,0.00,,,0.01,WUHU216HW,2013-04-15 02:57:00,
2013-04-14 23:02:00,36.0,30.4,29.87,North,0,0.0,0.0,80,0.00,,,0.01,WUHU216HW,2013-04-15 03:02:00,
2013-04-14 23:07:00,36.0,30.4,29.87,North,0,0.0,0.0,80,0.00,,,0.01,WUHU216HW,2013-04-15 03:07:00,
2013-04-14 23:12:00,35.8,29.9,29.87,North,0,0.0,0.0,79,0.00,,,0.01,WUHU216HW,2013-04-15 03:12:00,
2013-04-14 23:18:00,35.6,29.7,29.87,North,0,0.0,0.0,79,0.00,,,0.01,WUHU216HW,2013-04-15 03:18:00,
2013-04-14 23:23:00,35.6,30.1,29.87,North,0,0.0,0.0,80,0.00,,,0.01,WUHU216HW,2013-04-15 03:23:00,
2013-04-14 23:28:00,35.5,29.9,29.87,South,180,0.0,0.0,80,0.00,,,0.01,WUHU216HW,2013-04-15 03:28:00,
2013-04-14 23:33:00,35.3,29.7,29.88,South,180,0.4,0.4,80,0.00,,,0.01,WUHU216HW,2013-04-15 03:33:00,
2013-04-14 23:38:00,34.9,29.3,29.88,East,90,0.4,0.4,80,0.00,,,0.01,WUHU216HW,2013-04-15 03:38:00,
2013-04-14 23:43:00,34.9,29.3,29.88,East,90,0.0,0.4,80,0.00,,,0.01,WUHU216HW,2013-04-15 03:43:00,
2013-04-14 23:48:00,34.6,29.0,29.88,East,90,0.0,0.0,80,0.00,,,0.01,WUHU216HW,2013-04-15 03:48:00,
2013-04-14 23:53:00,34.4,28.8,29.88,East,90,0.0,0.0,80,0.00,,,0.01,WUHU216HW,2013-04-15 03:53:00,
2013-04-14 23:58:00,34.2,28.6,29.89,East,90,0.0,0.0,80,0.00,,,0.01,WUHU216HW,2013-04-15 03:58:00,